Regional Weather Roundup
Issued by NWS

Home | Current Version | Previous Version | Graphics & Text | Print | Product List | Glossary Off
Versions: 1 2 3 4 5 6 7 8 9 10 11 12 13 14 15 16 17 18 19 20 21 22 23 24 25 26 27 28 29 30 31 32 33 34 35 36 37 38 39 40 41 42 43 44 45 46 47 48 49 50

642
ASUS43 KTOP 242008
RWRKS

WEATHER ROUNDUP FOR KANSAS
NATIONAL WEATHER SERVICE GOODLAND KS
300 PM CDT FRI MAR 24 2017

NOTE:  "FAIR" INDICATES FEW OR NO CLOUDS BELOW 12,000 FEET WITH NO
SIGNIFICANT WEATHER AND/OR OBSTRUCTIONS TO VISIBILITY.

KSZ001>006-013>018-027>032-041>047-242100-
NORTHWEST KANSAS

CITY           SKY/WX    TMP DP  RH WIND       PRES   REMARKS
GOODLAND       CLOUDY    40  39  97 N28G36    29.98R WCI  29
HILL CITY      CLOUDY    45  42  89 NE23G31   29.91S
RUSSELL        MOSUNNY   64  46  52 N26G36    29.78R
$$

KSZ061>065-074>080-084>089-242100-
SOUTHWEST KANSAS

CITY           SKY/WX    TMP DP  RH WIND       PRES   REMARKS
DODGE CITY     CLOUDY    65  27  23 E5        29.74R
ELKHART          N/A     47  33  58 N28         N/A
GARDEN CITY    CLOUDY    51  44  77 N32G41    29.80R
GREAT BEND     SUNNY     73  30  20 SW14G23   29.74S
LIBERAL        CLOUDY    52  37  58 NE12      29.77R
PRATT          SUNNY     70  26  19 SE15      29.73S
$$

KSZ066>073-081>083-090>101-242100-
SOUTHEAST KANSAS

CITY           SKY/WX    TMP DP  RH WIND       PRES   REMARKS
CHANUTE        CLOUDY    67  56  67 S23G30    29.82F
COFFEYVILLE    CLOUDY    66  58  75 S17G24    29.81F
HUTCHINSON     MOSUNNY   78  36  21 S21G28    29.72F
MEDICINE LODGE   N/A     73  28  18 SE14G23   29.69F
NEWTON         MOSUNNY   72  51  47 SE14G24   29.74F
PARSONS        CLOUDY    66  57  72 S15G22    29.83S
WICHITA INTL   MOSUNNY   74  49  41 SE13G23   29.72F
WICHITA JABRA  SUNNY     74  48  39 SE17G24   29.73F
WICHITA MCCONL SUNNY     74  50  43 S14G21    29.72F
WINFIELD       MOSUNNY   69  55  60 SE16      29.73F
$$

KSZ007>012-019>026-033>040-048>060-102>105-242100-
NORTHEAST KANSAS

CITY           SKY/WX    TMP DP  RH WIND       PRES   REMARKS
CONCORDIA      MOSUNNY   56  48  74 N18G28    29.83R
EMPORIA        CLOUDY    69  56  62 S12G18    29.78F
LAWRENCE       CLOUDY    66  58  75 SE5       29.84S
MANHATTAN      TSTM      62  54  74 E15       29.81R
MARYSVILLE     CLOUDY    59  52  77 N14G24    29.84R
OLATHE IND     CLOUDY    64  57  78 S8        29.85F
OLATHE EXE     LGT RAIN  62  59  90 S15       29.85S
SALINA         MOSUNNY   78  33  19 SE7G17    29.74F
TOPEKA BILLARD CLOUDY    67  57  70 SE12      29.82R
TOPEKA FORBES  CLOUDY    69  56  62 S13       29.82S
$$




USA.gov is the U.S. government's official web portal to all federal, state and local government web resources and services.